TimeMST,TemperatureF,Dew PointF,Humidity,Sea Level PressureIn,VisibilityMPH,Wind Direction,Wind SpeedMPH,Gust SpeedMPH,PrecipitationIn,Events,Conditions,WindDirDegrees,DateUTC
12:15 AM,21.2,17.6,86,29.63,2.5,NNW,12.7,21.9,N/A,,Overcast,340,2013-12-03 07:15:00
12:35 AM,19.4,17.6,93,29.61,3.0,North,17.3,23.0,N/A,,Overcast,350,2013-12-03 07:35:00
12:55 AM,17.6,15.8,93,29.63,0.8,NNW,17.3,24.2,N/A,,Overcast,330,2013-12-03 07:55:00
1:15 AM,17.6,15.8,93,29.62,1.5,NNW,16.1,25.3,N/A,,Overcast,340,2013-12-03 08:15:00
1:35 AM,17.6,14.0,86,29.65,1.8,NNW,17.3,-,N/A,,Overcast,330,2013-12-03 08:35:00
1:55 AM,17.6,14.0,86,29.65,2.5,North,16.1,23.0,N/A,,Overcast,350,2013-12-03 08:55:00
2:15 AM,15.8,12.2,86,29.65,2.0,North,19.6,-,N/A,,Overcast,360,2013-12-03 09:15:00
2:35 AM,15.8,12.2,86,29.67,1.5,North,16.1,20.7,N/A,,Overcast,350,2013-12-03 09:35:00
2:55 AM,14.0,10.4,86,29.68,1.5,NNW,18.4,25.3,N/A,,Overcast,340,2013-12-03 09:55:00
3:15 AM,12.2,10.4,92,29.68,2.5,North,18.4,23.0,N/A,,Overcast,350,2013-12-03 10:15:00
3:35 AM,12.2,10.4,92,29.69,3.0,North,16.1,-,N/A,,Overcast,360,2013-12-03 10:35:00
3:55 AM,12.2,8.6,85,29.69,3.0,North,17.3,-,N/A,,Overcast,350,2013-12-03 10:55:00
4:15 AM,12.2,8.6,85,29.70,3.0,NNW,19.6,27.6,N/A,,Overcast,340,2013-12-03 11:15:00
4:35 AM,12.2,8.6,85,29.71,2.5,NNW,18.4,21.9,N/A,,Overcast,330,2013-12-03 11:35:00
4:55 AM,12.2,8.6,85,29.70,1.8,NNW,18.4,24.2,N/A,,Overcast,340,2013-12-03 11:55:00
5:15 AM,12.2,8.6,85,29.69,1.2,NW,20.7,29.9,N/A,,Overcast,320,2013-12-03 12:15:00
5:35 AM,10.4,8.6,92,29.70,1.5,NNW,13.8,27.6,N/A,,Overcast,330,2013-12-03 12:35:00
5:55 AM,10.4,6.8,85,29.72,2.5,NNW,18.4,24.2,N/A,,Overcast,340,2013-12-03 12:55:00
6:15 AM,10.4,6.8,85,29.72,4.0,North,17.3,24.2,N/A,,Overcast,350,2013-12-03 13:15:00
6:35 AM,10.4,6.8,85,29.74,3.0,NNW,16.1,23.0,N/A,,Overcast,340,2013-12-03 13:35:00
6:55 AM,10.4,6.8,85,29.76,5.0,NNW,16.1,19.6,N/A,,Overcast,340,2013-12-03 13:55:00
7:15 AM,10.4,5.0,79,29.75,8.0,NNW,15.0,23.0,N/A,,Overcast,340,2013-12-03 14:15:00
7:35 AM,10.4,5.0,79,29.76,3.0,NNW,12.7,21.9,N/A,,Overcast,340,2013-12-03 14:35:00
7:55 AM,8.6,6.8,92,29.77,4.0,North,16.1,25.3,N/A,,Overcast,350,2013-12-03 14:55:00
8:15 AM,8.6,5.0,85,29.78,8.0,NNW,17.3,23.0,N/A,,Overcast,340,2013-12-03 15:15:00
8:35 AM,10.4,3.2,73,29.79,10.0,NNW,17.3,20.7,N/A,,Overcast,340,2013-12-03 15:35:00
8:55 AM,10.4,3.2,73,29.80,8.0,NNW,15.0,19.6,N/A,,Overcast,340,2013-12-03 15:55:00
9:15 AM,10.4,3.2,73,29.81,10.0,NNW,15.0,20.7,N/A,,Overcast,340,2013-12-03 16:15:00
9:35 AM,10.4,3.2,73,29.81,10.0,NNW,13.8,-,N/A,,Overcast,340,2013-12-03 16:35:00
9:55 AM,10.4,3.2,73,29.82,10.0,North,18.4,23.0,N/A,,Overcast,360,2013-12-03 16:55:00
10:15 AM,8.6,3.2,79,29.84,5.0,North,15.0,24.2,N/A,,Overcast,350,2013-12-03 17:15:00
10:35 AM,8.6,3.2,79,29.84,4.0,North,16.1,-,N/A,,Mostly Cloudy,350,2013-12-03 17:35:00
10:55 AM,8.6,3.2,79,29.83,4.0,NNW,17.3,21.9,N/A,,Mostly Cloudy,340,2013-12-03 17:55:00
11:15 AM,8.6,3.2,79,29.83,3.0,North,15.0,-,N/A,,Overcast,360,2013-12-03 18:15:00
11:35 AM,8.6,3.2,79,29.82,3.0,North,16.1,23.0,N/A,,Overcast,360,2013-12-03 18:35:00
11:55 AM,8.6,3.2,79,29.83,2.5,North,21.9,27.6,N/A,,Mostly Cloudy,360,2013-12-03 18:55:00
12:15 PM,8.6,3.2,79,29.82,3.0,North,17.3,23.0,N/A,,Overcast,350,2013-12-03 19:15:00
12:35 PM,8.6,3.2,79,29.83,2.5,North,17.3,23.0,N/A,,Overcast,360,2013-12-03 19:35:00
12:55 PM,6.8,3.2,85,29.82,3.0,North,17.3,23.0,N/A,,Overcast,360,2013-12-03 19:55:00
1:15 PM,6.8,3.2,85,29.83,2.5,North,12.7,-,N/A,,Overcast,350,2013-12-03 20:15:00
1:35 PM,6.8,3.2,85,29.82,2.5,North,12.7,21.9,N/A,,Overcast,350,2013-12-03 20:35:00
1:55 PM,6.8,1.4,79,29.83,3.0,North,12.7,18.4,N/A,,Overcast,360,2013-12-03 20:55:00
2:15 PM,6.8,1.4,79,29.85,8.0,NNW,10.4,-,N/A,,Overcast,340,2013-12-03 21:15:00
2:35 PM,6.8,1.4,79,29.85,10.0,NNW,8.1,17.3,N/A,,Overcast,330,2013-12-03 21:35:00
2:55 PM,6.8,1.4,79,29.85,10.0,North,10.4,16.1,N/A,,Overcast,350,2013-12-03 21:55:00
3:35 PM,6.8,1.4,79,29.86,10.0,NNW,8.1,-,N/A,,Overcast,340,2013-12-03 22:35:00
3:55 PM,5.0,-0.4,78,29.85,10.0,NNW,9.2,-,N/A,,Overcast,340,2013-12-03 22:55:00
4:15 PM,5.0,-0.4,78,29.86,10.0,NW,10.4,-,N/A,,Overcast,310,2013-12-03 23:15:00
4:35 PM,3.2,-0.4,85,29.87,10.0,NW,6.9,-,N/A,,Overcast,310,2013-12-03 23:35:00
4:55 PM,3.2,-0.4,85,29.88,8.0,NW,6.9,-,N/A,,Overcast,320,2013-12-03 23:55:00
5:15 PM,3.2,-0.4,85,29.89,4.0,NNW,9.2,-,N/A,,Overcast,330,2013-12-04 00:15:00
5:35 PM,3.2,-0.4,85,29.89,3.0,North,9.2,-,N/A,,Overcast,350,2013-12-04 00:35:00
5:55 PM,3.2,-0.4,85,29.90,8.0,North,4.6,-,N/A,,Overcast,350,2013-12-04 00:55:00
6:15 PM,3.2,-0.4,85,29.90,10.0,North,6.9,-,N/A,,Overcast,350,2013-12-04 01:15:00
6:35 PM,3.2,-2.2,78,29.90,10.0,North,10.4,-,N/A,,Overcast,10,2013-12-04 01:35:00
6:55 PM,1.4,-0.4,92,29.91,10.0,North,9.2,-,N/A,,Overcast,10,2013-12-04 01:55:00
7:15 PM,3.2,-0.4,85,29.92,9.0,North,6.9,-,N/A,,Overcast,360,2013-12-04 02:15:00
7:35 PM,1.4,-2.2,85,29.92,4.0,North,3.5,-,N/A,,Mostly Cloudy,360,2013-12-04 02:35:00
7:55 PM,1.4,-0.4,92,29.92,3.0,Calm,Calm,-,N/A,,Overcast,0,2013-12-04 02:55:00
8:15 PM,3.2,-0.4,85,29.92,2.0,WNW,3.5,-,N/A,,Overcast,300,2013-12-04 03:15:00
8:35 PM,3.2,-0.4,85,29.92,1.5,Calm,Calm,-,N/A,,Overcast,0,2013-12-04 03:35:00
8:55 PM,3.2,-0.4,85,29.93,2.5,Calm,Calm,-,N/A,,Overcast,0,2013-12-04 03:55:00
9:15 PM,3.2,1.4,92,29.92,4.0,North,8.1,-,N/A,,Overcast,350,2013-12-04 04:15:00
9:35 PM,3.2,1.4,92,29.92,3.0,North,10.4,-,N/A,,Overcast,360,2013-12-04 04:35:00
9:55 PM,3.2,-0.4,85,29.93,3.0,North,13.8,-,N/A,,Overcast,360,2013-12-04 04:55:00
10:15 PM,3.2,-0.4,85,29.93,4.0,North,12.7,19.6,N/A,,Overcast,350,2013-12-04 05:15:00
10:35 PM,3.2,-0.4,85,29.93,3.0,NNW,10.4,-,N/A,,Overcast,340,2013-12-04 05:35:00
10:55 PM,3.2,-0.4,85,29.93,2.5,NNW,11.5,-,N/A,,Overcast,340,2013-12-04 05:55:00
11:15 PM,3.2,-0.4,85,29.94,3.0,North,13.8,19.6,N/A,,Overcast,350,2013-12-04 06:15:00
11:35 PM,1.4,-2.2,85,29.94,4.0,North,12.7,-,N/A,,Overcast,350,2013-12-04 06:35:00
11:55 PM,1.4,-2.2,85,29.94,4.0,NNW,13.8,-,N/A,,Overcast,340,2013-12-04 06:55:00